Location: Newark
(44.1667°N, 8.2500°E)
Time: 18:31:03
(UTC+00:00)

Envisat - Pass Details

Date: 17 November 2019
Orbit: 764 x 766 km, 98.1° (Epoch: 12 December)

Event Time Altitude Azimuth Distance (km) Brightness Sun altitude
Rises 16:49:39 0° 148° (SSE) 3,221 6.1 -9.3°
Reaches altitude 10° 16:52:01 10° 142° (SE) 2,299 5.3 -9.7°
Maximum altitude 16:56:51 47° 70° (ENE) 1,016 3.2 -10.5°
Drops below altitude 10° 17:01:42 10° 358° (N) 2,313 5.4 -11.4°
Sets 17:04:05 0° 353° (N) 3,243 6.2 -11.8°
